Back to catalog

SIRIUS 3

AliveCommunicationsGEO
NORAD 25492·PAYLOAD·🇱🇺 Luxembourg

Launched Oct 5, 1998 from Guiana Space Centre

Loading…

TLE

FreshSource: Space-Track

Epoch: Sep 14, 2026, 12:16 UTC

1 25492U 98056B   26257.51169531  .00000016  00000-0  00000-0 0  9990
2 25492  11.9357  33.6423 0001910 128.5686  55.1368  0.99034134102002

Track SIRIUS 3 in real time with AllMySat

Download on the App Store